Location: Colonia Mina de C?rbuni
(46.1667°N, 22.7167°E)
Time: 07:09:16
(UTC+00:00)

Vanguard 1 Rocket - Pass Details

Date: 17 April 2024
Orbit: 650 x 4220 km, 34.3° (Epoch: 26 May)

Event Time Altitude Azimuth Distance (km) Brightness Sun altitude
Rises 23:42:43 0° 269° (W) 5,120 11.0 -30.9°
Enters shadow 23:43:49 - 266° (W) 4,929 10.9 -30.8°
Exits shadow 00:09:35 14° 166° (SSE) 6,404 11.3 -28.9°
Drops below altitude 10° 00:12:51 10° 160° (SSE) 6,992 11.5 -28.6°
Sets 00:20:27 0° 150° (SSE) 8,333 12.0 -28.0°
